Weather

Vsebine: Paragliding sitesCurrent conditionsCurrent conditions (amateur)Radar rainfal imageMeteo stationsPanoramic cameras


Current conditions (official report)

Show amateur stations

Click on a specific station to see its location

Location Weather conditions Temperature Wind Air pressure Last updated Geopedia
    °C direction speed (m/s) gusts (m/s) hPa    
Babno Polje 6   - - 2020-01-28 04:53:00
Babno Polje (756 m) 5   - - 2016-01-12 07:40:00
Bilje Nova Gorica 7   1 2 1012 2020-01-28 04:53:00
Bilje pri Novi Gorici 6   1 - 1012 2020-01-28 04:42:00
Blegoš 0   - - 2020-01-28 04:53:00
Bohinjska Češnjica 5   - - 2020-01-28 04:53:00
Boršt Gorenja vas 5   2 3 1011 2020-01-28 04:36:00
Bovec 4   - 3 1012 2020-01-28 04:36:00
Breginj 3   - - 2020-01-28 04:53:00
Bukovski vrh 2   - - 2020-01-28 02:53:00
Celje 6   3 - 1010 2020-01-28 04:42:00
Cerkniško jezero 7   - - 2020-01-28 04:54:00
Črnomelj 2   - - 1012 2020-01-28 04:42:00
Davča 1   - - 2020-01-28 04:53:00
Dobliče Črnomelj 3   1 2 1012 2020-01-28 04:32:00
Dolenje Ajdovščina 7   - 1 2020-01-28 04:35:00
Gačnik 0   1 2 2020-01-28 04:53:00
Godnje 7   2 5 2020-01-28 04:53:00
Gornji Grad 6   - - 2020-01-28 04:53:00
Hočko Pohorje 5   - - 2020-01-28 04:53:00
Hrastnik 17   2 5 1009 2019-09-30 08:36:00
Idrija 5   - - 2020-01-28 04:53:00
Ilirska Bistrica 7   2 4 2020-01-28 04:35:00
Iskrba 6   1 4 2020-01-28 04:53:00
Jeronim 5   - - 2020-01-28 04:53:00
Jeruzalem 3   - - 2020-01-28 04:53:00
Jezersko 5   - - 2020-01-28 04:53:00
Juršče   - - 2016-09-13 14:33:00
Kamniška Bistrica 4   - - 2020-01-28 04:53:00
Kanin -5   - - 2020-01-28 04:53:00
Katarina nad Ljubljano 4   - - 2020-01-27 19:42:00
Kočevje 8   3 5 2020-01-28 04:53:00
Koper Kapitanija 10   2 4 1012 2020-01-28 04:36:00
Korensko sedlo 3   - - 2020-01-28 04:53:00
Kraj. park Goričko 0   5 6 2020-01-28 04:35:00
Kranj 3   - - 2020-01-28 04:53:00
Kredarica -6   7 18 2020-01-28 04:53:00
Krn 3   - - 2020-01-28 04:53:00
Krško 2   1 2 1012 2020-01-28 04:39:00
Krvavec -2   13 17 2020-01-28 04:53:00
Kubed 8   - - 2020-01-28 04:53:00
Kum 1   5 11 2020-01-28 04:53:00
Lendava 2   3 6 1010 2020-01-28 04:37:00
Let. E. Rusjana Maribor 6   6 11 1009 2020-01-28 04:34:00
Let. J. Pučnika Lj. 0   2 3 1011 2015-11-26 11:03:00
Let. J. Pučnika Ljubljana 4   2 3 1011 2020-01-28 04:53:00
Letališče Cerklje ob Krki 2   2 - 1011 2020-01-28 04:42:00
Letališče Edvarda Rusjana Maribor 6   8 10 1008 2020-01-28 04:42:00
Letališče Jožeta Pučnika Ljubljana 3   3 - 1012 2020-01-28 04:42:00
Letališče Lesce 3   1 - 1011 2020-01-28 04:42:00
Letališče Portorož 11   4 - 1012 2020-01-28 04:42:00
Lisca 3   8 11 2020-01-28 04:53:00
Lisca (943 m) 9   5 12 2016-03-29 14:02:00
Litija 3   - - 2020-01-28 04:53:00
Ljubljana 5   2 - 1011 2020-01-28 04:42:00
Logarska dolina 7   - - 2020-01-28 04:04:00
Logatec 5   - - 2020-01-28 04:53:00
Luka Koper 8   1 2 2020-01-28 04:35:00
Malkovec 4   2 3 1011 2020-01-28 04:37:00
Maribor 0   1 1 2020-01-28 04:53:00
Maribor - Tabor -3   1 2 2020-01-14 09:33:00
Marinča vas 3   - - 2020-01-28 04:53:00
Metlika -2   - - 2020-01-25 03:04:00
Mežica 0   - - 2020-01-28 04:53:00
Miklavž na Gorjancih 4   - - 2020-01-28 04:53:00
Murska Sobota 4   1 4 1009 2020-01-28 04:53:00
Nanos 2   3 8 2020-01-28 04:53:00
Nova Gorica 7   - - 2020-01-28 04:32:00
Nova vas - Bloke 7   - - 2020-01-28 04:53:00
Novo mesto 2   1 2 1011 2020-01-28 04:53:00
Osilnica 5   - - 2020-01-28 04:53:00
Otlica 3   5 9 2020-01-28 04:32:00
Otlica (965 m) 7   4 7 2016-03-31 08:24:00
Park Škocj. jame 8   4 9 1012 2020-01-28 04:32:00
Pasja ravan 1   1 5 2020-01-28 04:53:00
Pavličevo sedlo 2   - - 2020-01-28 04:53:00
Piran-ocean. boja 11   5 6 2020-01-28 04:47:00
Planina pod Golico 1   - - 2020-01-28 04:53:00
Podčetrtek 2   1 2 1010 2020-01-28 04:32:00
Podnanos 7   3 3 2020-01-28 04:53:00
Postojna 7   4 9 1011 2020-01-28 04:53:00
Predel 0   - - 2020-01-28 04:53:00
Ptuj 7   2 3 2020-01-28 04:53:00
Ptuj - Terme -2   2 3 2017-01-19 14:35:00
Radegunda 5   - - 2020-01-28 04:53:00
Radenci 0   - - 1010 2020-01-28 04:34:00
Rateče 1   1 - 2020-01-28 04:42:00
Rateče (864 m) 1   1 2 2020-01-28 04:34:00
Ratitovec -2   18 23 2020-01-28 04:53:00
Ravne na Koroškem -1   1 2 2020-01-28 04:36:00
Rogaška Slatina 2   1 2 2020-01-28 04:53:00
Rogla -1   11 19 2020-01-28 04:53:00
Rogla (1492 m) -11   4 7 2016-01-18 10:32:00
Rudno polje 1   2 5 2020-01-28 04:53:00
Rudno polje (1347 m) -2   1 3 2015-10-20 07:36:00
Sevno 4   - - 2020-01-28 04:53:00
Slavnik 4   15 18 2020-01-28 04:53:00
Slovenj Gradec 5   1 - 2020-01-28 04:42:00
Slovenske Konjice 8   - - 2020-01-28 04:53:00
Sviščaki 2   6 10 2020-01-28 04:53:00
Šebreljski vrh 2   - - 2020-01-28 04:53:00
Šmartno pri Slovenj Gradcu 3   1 1 2020-01-28 04:53:00
Tatre 6   - - 2020-01-28 04:53:00
Tolmin - Volče 5   1 2 2020-01-28 04:53:00
Topol 4   - - 2020-01-28 04:53:00
Trbovlje 5   - 1 2020-01-28 04:37:00
Trebnje 2   - - 2020-01-28 04:53:00
Trije Kralji na Pohorju 1   - - 2020-01-28 04:53:00
Trojane - Limovce 3   7 11 1010 2020-01-28 04:53:00
Uršlja gora -1   8 12 2020-01-28 04:53:00
Vedrijan 6   - - 2020-01-28 04:53:00
Velenje 6   - - 2020-01-28 04:53:00
Velike Lašče 6   2 6 2020-01-28 04:53:00
Vogel -1   4 12 2020-01-28 04:53:00
Vojsko 5   - - 2020-01-27 13:42:00
Vrbanski plato -2   2 3 2016-12-07 11:23:00
Vrhnika 7   1 2 2020-01-28 04:53:00
Vršič -2   - - 2020-01-28 04:53:00
Zadlog 5   - - 2020-01-28 04:53:00
Zelenica -1   - - 2020-01-28 04:53:00
Zgornja Kapla 4   6 9 2020-01-28 04:53:00
Zgornja Radovna 2   - - 2020-01-28 04:53:00
Zgornja Sorica 2   - - 2020-01-28 04:53:00
Source: Slovenian Environmental Agency, meteo.si